Date,TemperatureHighF,TemperatureAvgF,TemperatureLowF,DewpointHighF,DewpointAvgF,DewpointLowF,HumidityHigh,HumidityAvg,HumidityLow,PressureMaxIn,PressureMinIn,WindSpeedMaxMPH,WindSpeedAvgMPH,GustSpeedMaxMPH,PrecipitationSumIn
2013-1-1,38.3,24.1,10.6,21.5,7.6,-5.4,76,51,26,30.63,30.38,4,0,9,0.04
2013-1-2,31.8,13.4,0.9,4.6,-7.1,-16.7,54,40,24,30.82,30.60,6,0,6,0.00
2013-1-3,32.2,7.2,-6.7,-1.4,-11.0,-18.1,57,44,21,30.84,30.69,2,0,3,0.00
2013-1-4,39.9,20.4,0.1,24.2,9.9,-11.9,79,63,49,30.67,30.49,5,0,6,0.01
2013-1-5,43.3,28.6,14.5,22.3,13.9,4.9,73,56,29,31.00,30.51,2,0,13,0.00
2013-1-6,43.2,26.1,14.0,26.8,16.5,5.5,77,67,49,30.96,30.66,1,0,2,0.00
2013-1-7,38.3,24.7,11.3,21.7,16.2,5.6,81,70,48,31.14,30.68,2,0,4,0.00
2013-1-8,47.7,26.8,11.5,25.2,16.8,5.7,86,67,39,31.10,30.95,7,0,7,0.00
2013-1-9,42.1,29.0,15.6,28.8,21.0,10.2,85,72,58,31.15,30.67,2,0,5,0.00
2013-1-10,48.2,36.3,23.7,31.3,23.9,17.3,87,62,39,31.27,30.68,20,2,20,0.00
2013-1-11,42.1,29.1,18.0,29.3,20.9,12.3,89,72,46,31.28,30.99,1,0,3,0.01
2013-1-12,42.1,36.4,32.0,39.6,34.1,29.1,95,91,88,30.99,30.86,2,0,2,0.25
2013-1-13,43.5,38.9,35.2,43.0,38.0,34.0,99,97,93,30.91,30.71,3,0,4,0.35
2013-1-14,64.2,44.2,30.6,55.5,39.1,25.7,100,84,55,30.97,30.59,3,0,6,0.09
2013-1-15,39.9,31.7,24.6,30.1,23.1,19.4,89,71,51,31.06,30.98,0,0,0,0.00
2013-1-16,30.7,29.1,27.5,27.1,24.0,19.2,90,82,65,31.01,30.53,0,0,0,0.00
2013-1-17,46.9,30.3,22.5,34.0,19.9,8.7,91,67,45,30.84,30.52,0,0,0,0.20
2013-1-18,27.1,13.6,4.6,8.7,-8.2,-13.6,53,38,24,31.15,30.84,0,0,0,0.00
2013-1-19,42.8,29.4,8.2,22.8,13.6,-5.4,65,51,38,31.09,30.62,0,0,0,0.00
2013-1-20,56.3,37.1,24.6,30.8,19.0,-5.0,77,50,26,30.62,30.20,0,0,0,0.00
2013-1-21,30.9,21.5,10.4,7.6,-2.1,-9.7,67,36,24,30.78,30.57,0,0,0,0.00
2013-1-22,33.3,17.1,3.0,8.1,-0.8,-9.0,66,46,24,30.78,30.50,0,0,0,0.00
2013-1-23,13.5,2.4,-4.9,-10.0,-20.8,-27.7,52,33,24,30.85,30.75,0,0,0,0.00
2013-1-24,20.8,4.2,-10.3,-7.0,-19.8,-28.6,50,31,24,30.87,30.70,0,0,0,0.00
2013-1-25,23.0,10.2,-2.2,-2.9,-10.8,-18.5,54,38,25,30.97,29.91,0,0,0,0.00
2013-1-26,30.7,16.0,5.2,1.5,-7.7,-14.9,53,35,25,30.00,29.85,0,0,0,0.00
2013-1-27,34.9,14.3,0.7,2.7,-7.5,-15.4,59,38,24,30.27,30.00,0,0,0,0.00
2013-1-28,19.2,7.9,3.7,-0.7,-7.5,-9.8,57,49,31,30.26,30.22,0,0,0,0.00
2013-1-29,38.3,28.0,20.5,28.5,21.4,15.0,88,76,58,30.05,29.90,0,0,0,0.00
2013-1-30,51.1,39.4,31.6,50.8,38.0,28.8,99,95,89,30.00,29.44,0,0,0,1.54
2013-1-31,54.1,43.5,28.9,53.9,31.3,3.5,100,67,31,29.81,29.20,0,0,0,0.65
2013-2-1,37.2,25.0,15.8,12.4,3.0,-6.4,56,39,26,30.36,29.81,0,0,0,0.00
2013-2-2,36.1,21.0,11.5,9.5,-0.1,-4.5,60,40,25,30.52,30.36,0,0,0,0.00
2013-2-3,28.4,23.7,16.2,13.1,9.5,7.2,71,55,45,30.37,30.02,0,0,0,0.00
2013-2-4,33.3,23.5,16.3,10.6,1.2,-11.4,68,40,25,30.19,29.99,0,0,0,0.00
2013-2-5,30.2,16.4,4.8,7.3,-1.6,-10.0,70,47,25,30.33,29.92,2,0,3,0.00
2013-2-6,45.3,26.6,16.2,26.2,12.2,-10.4,79,56,26,30.24,29.90,8,2,8,0.00
2013-2-7,34.7,17.8,6.4,4.2,-4.1,-11.3,57,38,25,30.50,30.24,4,1,4,0.00
2013-2-8,16.0,12.9,9.1,10.4,5.5,-5.6,82,73,37,30.50,29.79,16,3,17,0.00
2013-2-9,20.3,15.5,10.6,16.8,8.1,0.5,88,73,50,30.08,29.61,23,8,27,0.02
2013-2-10,47.1,20.0,-2.0,16.5,2.2,-10.4,69,49,25,30.32,30.09,4,1,8,0.00
2013-2-11,34.3,22.2,7.3,32.3,15.8,-3.4,95,77,59,30.30,29.57,2,0,3,0.00
2013-2-12,52.5,37.8,30.9,35.1,29.7,24.9,96,74,48,29.77,29.50,8,2,8,0.00
2013-2-13,53.2,34.6,26.1,27.1,22.3,17.8,76,62,32,29.80,29.69,4,1,6,0.00
2013-2-14,51.1,33.5,24.4,24.7,20.8,17.1,78,61,32,29.95,29.67,4,1,11,0.00
2013-2-15,54.3,32.6,18.1,35.0,25.4,13.6,91,76,43,29.95,29.85,5,1,8,0.00
2013-2-16,44.1,34.1,27.5,33.8,25.7,5.2,91,72,37,29.91,29.73,8,2,9,0.00
2013-2-17,27.7,21.4,15.6,18.7,7.8,-2.0,85,58,35,29.73,29.22,12,4,18,0.00
2013-2-18,37.2,22.3,11.3,5.5,-1.7,-4.4,50,35,25,29.91,29.47,11,4,11,0.00
2013-2-19,47.7,33.7,24.8,40.8,14.1,-4.4,99,50,25,30.04,29.52,7,2,7,0.36
2013-2-20,41.2,33.1,25.2,38.4,22.4,10.6,99,67,46,29.65,29.42,8,3,12,0.00
2013-2-21,38.7,27.4,20.5,15.7,11.2,5.2,63,51,28,30.10,29.64,8,4,12,0.00
2013-2-22,47.1,30.9,25.7,21.2,17.6,15.2,73,59,33,30.34,30.13,4,1,9,0.00
2013-2-23,39.2,32.3,26.1,32.5,25.8,18.6,90,77,65,30.31,30.00,3,1,4,0.00
2013-2-24,33.3,31.0,28.2,31.2,28.7,24.9,93,91,87,29.95,29.72,3,1,5,0.04
2013-2-25,49.6,32.6,22.8,35.5,27.0,20.0,92,81,55,30.20,29.86,3,0,4,0.00
2013-2-26,45.5,34.3,27.7,33.2,27.9,22.7,92,79,50,30.32,30.19,3,0,5,0.00
2013-2-27,37.2,32.8,28.8,33.7,29.8,26.2,91,89,83,30.19,29.77,8,2,10,0.14
2013-2-28,45.5,36.6,31.8,37.4,32.6,29.3,92,86,70,29.58,29.50,4,1,7,0.00
2013-3-1,37.9,33.5,28.4,29.4,27.4,25.3,89,79,67,29.64,29.50,8,1,13,0.00
2013-3-2,51.3,36.5,29.3,32.4,28.2,25.7,91,74,43,29.63,29.56,4,1,11,0.00
2013-3-3,45.7,35.8,30.7,35.4,29.4,24.5,89,78,65,29.59,29.50,3,1,4,0.00
2013-3-4,40.6,33.4,28.9,25.5,22.4,20.1,71,64,52,29.67,29.48,6,2,11,0.00
2013-3-5,50.2,37.7,30.9,32.3,27.5,21.8,82,67,50,30.06,29.67,7,2,13,0.00
2013-3-6,41.5,35.1,31.5,30.7,27.6,23.9,89,74,59,30.19,30.06,10,3,15,0.00
2013-3-7,36.5,32.6,29.7,26.5,23.6,21.4,81,69,60,30.15,30.03,9,4,21,0.00
2013-3-8,46.9,36.0,27.1,25.8,22.3,17.0,89,61,31,30.16,29.97,15,4,17,0.00
2013-3-9,58.3,39.6,26.1,29.7,22.3,14.6,86,53,27,30.33,30.15,11,2,11,0.00
2013-3-10,52.9,34.6,22.5,32.7,26.2,19.4,88,73,43,30.39,30.28,7,1,7,0.00
2013-3-11,54.9,38.8,29.8,36.7,32.4,26.5,92,79,49,30.28,30.11,5,1,7,0.00
2013-3-12,46.8,42.5,36.7,46.3,41.4,34.8,99,96,89,30.13,29.70,8,2,13,0.08
2013-3-13,51.6,41.0,28.6,45.4,35.4,24.1,100,82,47,29.73,29.65,5,1,5,0.01
2013-3-14,45.1,31.3,20.1,25.9,18.2,3.2,87,61,31,29.74,29.60,7,2,11,0.00
2013-3-15,42.8,27.3,11.8,26.1,8.0,-1.7,87,46,27,29.76,29.57,8,2,8,0.00
2013-3-16,42.4,29.7,17.2,26.3,13.9,5.9,89,55,28,29.85,29.60,7,1,7,0.00
2013-3-17,41.2,26.9,16.3,13.3,5.4,-4.6,69,42,25,30.27,29.85,8,2,14,0.00
2013-3-18,41.9,24.9,5.5,19.6,6.4,-6.2,68,47,25,30.40,30.24,8,1,8,0.00
2013-3-19,32.7,28.7,22.8,29.6,24.9,18.7,91,86,66,30.22,29.64,7,2,8,0.00
2013-3-20,43.3,29.0,15.1,30.6,18.8,10.4,88,67,44,29.71,29.61,8,2,13,0.00
2013-3-21,25.3,24.6,23.2,15.3,14.4,13.2,67,65,62,29.73,29.71,3,2,5,0.00
2013-3-22,45.9,31.9,21.2,19.0,15.6,11.7,80,53,28,29.64,29.55,8,1,8,0.00
2013-3-23,46.6,33.3,23.4,23.6,18.2,12.5,66,55,31,29.67,29.51,13,3,15,0.00
2013-3-24,56.7,37.9,24.4,27.0,21.7,16.7,74,54,28,29.76,29.66,10,2,10,0.00
2013-3-25,49.5,40.0,26.6,33.1,28.0,19.2,77,63,51,29.75,29.64,7,3,7,0.00
2013-3-26,54.0,45.7,30.9,32.6,28.1,19.4,68,52,26,29.72,29.61,5,4,12,0.00
2013-3-27,59.9,39.0,25.5,34.7,26.2,18.5,92,64,29,29.85,29.69,8,2,9,0.05
2013-3-28,51.8,40.3,33.1,37.0,31.9,27.0,95,74,47,29.96,29.84,5,1,7,0.02
2013-3-29,63.7,43.2,32.0,37.9,31.3,27.1,84,65,33,30.00,29.92,8,1,8,0.00
2013-3-30,62.6,44.3,30.2,34.8,25.7,15.2,88,54,25,30.06,29.96,7,1,9,0.00
2013-3-31,55.9,41.1,23.2,38.7,26.1,15.7,92,58,25,30.08,29.80,7,2,9,0.00
2013-4-1,63.9,44.1,32.5,44.4,36.6,10.4,100,78,34,29.79,29.45,9,2,10,0.49
2013-4-2,43.9,33.8,25.7,17.0,10.9,4.9,52,39,26,29.83,29.69,8,3,16,0.01
2013-4-3,47.5,36.4,27.1,16.8,11.6,7.6,51,36,25,30.03,29.81,12,4,12,0.00
2013-4-4,57.6,40.3,25.5,29.8,19.0,11.8,72,45,25,30.20,29.95,11,2,11,0.00
2013-4-5,65.7,46.2,33.6,31.0,25.7,21.6,71,48,22,29.95,29.61,9,2,9,0.00
2013-4-6,47.8,35.5,25.2,21.0,10.6,-1.6,59,37,25,30.30,29.82,8,2,9,0.00
2013-4-7,51.6,38.2,21.9,37.8,27.4,10.5,88,66,49,30.30,29.94,8,2,12,0.00
2013-4-8,69.3,48.8,34.3,41.8,37.3,33.5,100,69,28,30.10,29.88,6,2,8,0.00
2013-4-9,60.4,45.3,37.4,48.0,42.1,34.7,100,89,63,30.08,29.85,5,1,8,0.13
2013-4-10,59.7,46.7,41.2,49.9,44.2,40.7,100,92,67,29.97,29.86,4,1,5,0.37
2013-4-11,55.2,45.3,41.0,43.7,37.4,21.8,100,76,44,30.14,29.84,7,1,7,0.06
2013-4-12,40.8,34.4,31.6,33.8,28.2,15.6,97,80,41,30.23,29.82,5,1,5,0.38
2013-4-13,55.0,39.6,32.4,39.2,34.8,31.6,98,84,55,29.85,29.73,5,1,5,0.09
2013-4-14,61.9,43.8,32.0,40.0,35.7,28.8,99,76,31,30.12,29.82,6,1,6,0.01
2013-4-15,61.7,42.6,27.3,41.3,32.8,25.2,98,72,32,30.37,29.56,6,2,6,1.60